Marble, NC

4:04 PM EST on December 10, 2016 (GMT -0500)
Andrews

Weather History for KRHP - February, 2013

Change the Weather History Date:

Tuesday, February 26, 2013

  Actual Average (KMMI) Record (KMMI)
Temperature  
Mean Temperature 48 °F -  
Max Temperature 58 °F 54 °F 46 °F (2016)
Min Temperature 38 °F 28 °F 21 °F (2014)
Degree Days  
Heating Degree Days 17    
Moisture  
Dew Point 42 °F    
Average Humidity 76    
Maximum Humidity 98    
Minimum Humidity 64    
Precipitation  
Precipitation 0.55 in - - ()
Sea Level Pressure  
Sea Level Pressure 29.62 in    
Wind  
Wind Speed 9 mph (SSW)    
Max Wind Speed 24 mph    
Max Gust Speed 37 mph    
Visibility 9 miles    
Events Rain    
Averages and records for this station are not official NWS values.
T = Trace of Precipitation, MM = Missing Value Source: NWS Daily Summary

Daily Weather History Graph

Daily Weather History Graph

Search for Another Location

Airport or City:

Trip Planner

Search our weather history database for the weather conditions in past years. The results will help you decide how hot, cold, wet, or windy it might be!

Date:

Astronomy

Feb. 26, 2013 Rise Set
Actual Time 7:08 AM EST 6:28 PM EST
Civil Twilight 6:42 AM EST 6:54 PM EST
Nautical Twilight 6:13 AM EST 7:23 PM EST
Astronomical Twilight 5:44 AM EST 7:52 PM EST
Moon 7:39 PM EST (2/26) 7:14 AM EST (2/26)
Length of Visible Light 12h 11m
Length of Day
11h 20m
Full, 99% of the Moon is Illuminated
Feb 26
Full
Mar 4
Last Quarter
Mar 11
New
Mar 19
First Quarter
Mar 27
Full

Hourly Weather History & Observations

Time (EST) Temp. Windchill Dew Point Humidity Pressure Visibility Wind Dir Wind Speed Gust Speed Precip Events Conditions
12:15 AM 53.1 °F - 44.2 °F 72% 29.80 in 10.0 mi WNW 8.1 mph - N/A   Overcast
12:35 AM 53.6 °F - 44.4 °F 71% 29.80 in 10.0 mi SSE 6.9 mph - N/A   Overcast
12:55 AM 52.7 °F - 44.6 °F 74% 29.78 in 10.0 mi East 9.2 mph - N/A Rain Light Rain
1:15 AM 52.7 °F - 44.4 °F 73% 29.77 in 10.0 mi North 4.6 mph 18.4 mph N/A   Overcast
1:35 AM 54.1 °F - 46.0 °F 74% 29.77 in 10.0 mi SE 6.9 mph 21.9 mph N/A Rain Rain
1:55 AM 52.7 °F - 46.2 °F 79% 29.75 in 7.0 mi East 12.7 mph 24.2 mph N/A Rain Rain
2:15 AM 53.1 °F - 46.8 °F 79% 29.74 in 7.0 mi SE 12.7 mph 21.9 mph 0.04 in Rain Light Rain
2:35 AM 53.1 °F - 47.8 °F 82% 29.74 in 5.0 mi ESE 4.6 mph 21.9 mph 0.11 in Rain Rain
2:55 AM 52.2 °F - 47.5 °F 84% 29.73 in 5.0 mi SSW 6.9 mph - 0.15 in Rain Rain
3:15 AM 51.6 °F - 46.4 °F 82% 29.73 in 7.0 mi West 9.2 mph 19.6 mph 0.07 in Rain Rain
3:35 AM 51.1 °F - 45.7 °F 82% 29.73 in 7.0 mi East 9.2 mph - 0.11 in Rain Rain
3:55 AM 50.9 °F - 45.5 °F 82% 29.74 in 7.0 mi NW 4.6 mph - 0.17 in Rain Rain
4:15 AM 50.0 °F - 45.9 °F 86% 29.72 in 7.0 mi NNW 3.5 mph - 0.04 in Rain Rain
4:35 AM 48.2 °F - 46.4 °F 93% 29.68 in 7.0 mi Calm Calm - 0.10 in Rain Rain
4:55 AM 48.2 °F - 47.1 °F 96% 29.64 in 10.0 mi Calm Calm - 0.12 in Rain Light Rain
5:15 AM 48.0 °F - 47.1 °F 97% 29.64 in 10.0 mi Calm Calm - N/A Rain Light Rain
5:35 AM 47.7 °F - 46.9 °F 97% 29.63 in 4.0 mi Calm Calm - N/A Rain Heavy Rain
5:55 AM 47.8 °F - 47.3 °F 98% 29.62 in 10.0 mi West 6.9 mph - 0.02 in Rain Rain
6:15 AM 48.7 °F - 47.3 °F 95% 29.62 in 10.0 mi West 11.5 mph - 0.01 in Rain Heavy Rain
6:35 AM 51.6 °F - 47.5 °F 86% 29.60 in 5.0 mi NNE 5.8 mph - 0.02 in Rain Rain
6:55 AM 51.4 °F - 47.7 °F 87% 29.58 in 10.0 mi NNW 8.1 mph - 0.04 in Rain Light Rain
7:15 AM 54.7 °F - 47.8 °F 78% 29.57 in 10.0 mi ESE 12.7 mph 27.6 mph 0.01 in Rain Light Rain
7:35 AM 54.1 °F - 47.7 °F 79% 29.57 in 7.0 mi SE 12.7 mph 28.8 mph 0.04 in Rain Rain
7:55 AM 53.6 °F - 46.0 °F 76% 29.57 in 10.0 mi South 5.8 mph 32.2 mph 0.05 in Rain Light Rain
8:15 AM 53.4 °F - 45.9 °F 76% 29.56 in 10.0 mi SE 13.8 mph 25.3 mph N/A   Light Drizzle
8:35 AM 54.5 °F - 45.3 °F 71% 29.55 in 10.0 mi South 9.2 mph 34.5 mph N/A   Mostly Cloudy
8:55 AM 55.9 °F - 46.6 °F 71% 29.52 in 10.0 mi South 9.2 mph 24.2 mph N/A   Scattered Clouds
9:15 AM 57.2 °F - 46.0 °F 66% 29.51 in 10.0 mi SE 16.1 mph 36.8 mph N/A   Clear
9:35 AM 57.6 °F - 46.6 °F 67% 29.50 in 10.0 mi ESE 17.3 mph 35.7 mph N/A   Clear
9:55 AM 58.3 °F - 47.5 °F 67% 29.54 in 10.0 mi West 24.2 mph 28.8 mph N/A   Clear
10:15 AM 53.1 °F - 45.7 °F 76% 29.55 in 10.0 mi South 9.2 mph 28.8 mph N/A Rain Rain
10:35 AM 54.1 °F - 46.4 °F 75% 29.55 in 10.0 mi SSE 11.5 mph 26.5 mph N/A   Overcast
10:55 AM 54.7 °F - 45.3 °F 71% 29.53 in 10.0 mi SE 8.1 mph 18.4 mph N/A   Mostly Cloudy
11:15 AM 55.8 °F - 45.5 °F 68% 29.53 in 10.0 mi South 18.4 mph 31.1 mph N/A   Scattered Clouds
11:35 AM 55.2 °F - 45.5 °F 70% 29.54 in 10.0 mi SSE 13.8 mph 32.2 mph N/A   Mostly Cloudy
11:55 AM 55.4 °F - 45.1 °F 68% 29.54 in 10.0 mi SSE 12.7 mph 26.5 mph N/A   Mostly Cloudy
12:15 PM 56.1 °F - 46.0 °F 69% 29.54 in 10.0 mi South 10.4 mph 19.6 mph N/A   Scattered Clouds
12:35 PM 55.2 °F - 45.0 °F 68% 29.53 in 10.0 mi SSW 10.4 mph 21.9 mph N/A   Mostly Cloudy
12:55 PM 57.0 °F - 46.6 °F 68% 29.53 in 10.0 mi SSW 13.8 mph 17.3 mph N/A   Mostly Cloudy
1:15 PM 54.9 °F - 44.8 °F 69% 29.53 in 10.0 mi SSW 12.7 mph 18.4 mph N/A   Overcast
1:35 PM 52.7 °F - 43.5 °F 71% 29.53 in 10.0 mi SSW 6.9 mph - N/A   Overcast
1:55 PM 52.5 °F - 43.7 °F 72% 29.53 in 10.0 mi SSW 8.1 mph - N/A   Overcast
2:15 PM 51.8 °F - 43.9 °F 74% 29.54 in 10.0 mi SSW 6.9 mph - N/A   Overcast
2:35 PM 51.8 °F - 43.5 °F 73% 29.55 in 10.0 mi South 9.2 mph - N/A   Overcast
2:55 PM 52.2 °F - 42.6 °F 70% 29.54 in 10.0 mi SSW 11.5 mph 25.3 mph N/A   Overcast
3:15 PM 51.3 °F - 41.5 °F 69% 29.55 in 10.0 mi SW 11.5 mph 20.7 mph N/A   Overcast
3:35 PM 51.8 °F - 41.0 °F 67% 29.54 in 10.0 mi SSW 11.5 mph 16.1 mph N/A   Overcast
3:55 PM 51.3 °F - 39.4 °F 64% 29.54 in 10.0 mi SW 10.4 mph 21.9 mph N/A   Overcast
4:15 PM 50.2 °F - 39.4 °F 66% 29.54 in 10.0 mi SW 12.7 mph 17.3 mph N/A   Overcast
4:35 PM 49.5 °F - 39.4 °F 68% 29.55 in 10.0 mi SW 9.2 mph 16.1 mph N/A   Overcast
4:55 PM 49.1 °F - 39.4 °F 69% 29.55 in 10.0 mi SW 10.4 mph 16.1 mph N/A   Overcast
5:15 PM 48.2 °F - 40.5 °F 75% 29.56 in 10.0 mi SW 10.4 mph 19.6 mph N/A   Light Drizzle
5:35 PM 47.1 °F - 40.1 °F 77% 29.59 in 10.0 mi WSW 19.6 mph 25.3 mph N/A Rain Light Rain
5:55 PM 45.9 °F 40.4 °F 39.7 °F 79% 29.60 in 10.0 mi SW 11.5 mph 19.6 mph N/A   Overcast
6:15 PM 45.7 °F 40.6 °F 38.5 °F 76% 29.62 in 10.0 mi SW 10.4 mph - N/A   Overcast
6:35 PM 45.5 °F 39.2 °F 38.3 °F 76% 29.62 in 10.0 mi WSW 13.8 mph 18.4 mph N/A   Overcast
6:55 PM 45.7 °F 40.2 °F 36.9 °F 71% 29.62 in 10.0 mi WSW 11.5 mph - N/A   Overcast
7:15 PM 45.5 °F 39.6 °F 36.1 °F 70% 29.63 in 10.0 mi WSW 12.7 mph 16.1 mph N/A   Overcast
7:35 PM 45.5 °F 40.8 °F 36.3 °F 70% 29.63 in 10.0 mi SW 9.2 mph 17.3 mph N/A   Overcast
7:55 PM 45.0 °F 38.9 °F 36.3 °F 72% 29.65 in 10.0 mi WSW 12.7 mph 20.7 mph N/A   Overcast
8:15 PM 44.2 °F 38.4 °F 35.4 °F 71% 29.66 in 10.0 mi WSW 11.5 mph 20.7 mph N/A   Overcast
8:35 PM 43.2 °F 35.9 °F 33.8 °F 70% 29.67 in 10.0 mi WSW 15.0 mph 25.3 mph N/A   Overcast
8:55 PM 43.0 °F 37.7 °F 32.2 °F 66% 29.68 in 10.0 mi SW 9.2 mph - N/A   Overcast
9:15 PM 42.6 °F 38.4 °F 32.2 °F 67% 29.69 in 10.0 mi WSW 6.9 mph - N/A   Overcast
9:35 PM 42.1 °F 38.4 °F 32.2 °F 68% 29.69 in 10.0 mi SW 5.8 mph - N/A   Overcast
9:55 PM 41.9 °F 35.9 °F 32.5 °F 69% 29.69 in 10.0 mi SW 10.4 mph - N/A   Overcast
10:15 PM 41.9 °F 35.0 °F 32.9 °F 70% 29.70 in 10.0 mi SW 12.7 mph 17.3 mph N/A   Overcast
10:35 PM 40.5 °F 32.1 °F 34.2 °F 78% 29.70 in 10.0 mi WSW 16.1 mph - N/A   Drizzle
10:55 PM 39.2 °F 32.0 °F 35.1 °F 85% 29.70 in 7.0 mi West 11.5 mph - N/A Rain Rain
11:15 PM 38.5 °F 32.1 °F 34.9 °F 87% 29.71 in 10.0 mi WSW 9.2 mph 17.3 mph N/A   Overcast
11:35 PM 38.5 °F 32.7 °F 34.7 °F 86% 29.71 in 10.0 mi SW 8.1 mph - N/A   Overcast
11:55 PM 38.5 °F 34.1 °F 34.3 °F 85% 29.71 in 10.0 mi SSW 5.8 mph - N/A   Overcast